Weather History for KCRX - September, 2013

Change the Weather History Date:

Friday, September 27, 2013

  Actual Average Record
Temperature  
Mean Temperature 70 °F -  
Max Temperature 84 °F 80 °F 95 °F (1954)
Min Temperature 57 °F 57 °F 39 °F (1985)
Cooling Degree Days 6    
Growing Degree Days 20 (Base 50)    
Moisture  
Dew Point 60 °F    
Average Humidity 76    
Maximum Humidity 100    
Minimum Humidity 40    
Precipitation  
Precipitation 0.00 in - - ()
Sea Level Pressure  
Sea Level Pressure 30.05 in    
Wind  
Wind Speed 2 mph (SE)    
Max Wind Speed 8 mph    
Max Gust Speed -    
Visibility 7 miles    
Events Fog    
Averages and records for this station are not official NWS values.
T = Trace of Precipitation, MM = Missing Value Source: NWS Daily Summary

Daily Weather History Graph

Daily Weather History Graph

Search for Another Location

Airport or City:

Trip Planner

Search our weather history database for the weather conditions in past years. The results will help you decide how hot, cold, wet, or windy it might be!

Date:

Astronomy

Sep. 27, 2013 Rise Set
Actual Time 6:46 AM CDT 6:43 PM CDT
Civil Twilight 6:21 AM CDT 7:08 PM CDT
Nautical Twilight 5:51 AM CDT 7:38 PM CDT
Astronomical Twilight 5:22 AM CDT 8:07 PM CDT
Moon No Moon Rise 2:09 PM CDT (9/27)
Length of Visible Light 12h 47m
Length of Day
11h 57m
Last Quarter, 45% of the Moon is Illuminated
Sep 27
Last Quarter
Oct 4
New
Oct 11
First Quarter
Oct 18
Full
Oct 26
Last Quarter

Hourly Weather History & Observations

Time (CDT) Temp. Heat Index Dew Point Humidity Pressure Visibility Wind Dir Wind Speed Gust Speed Precip Events Conditions
12:15 AM 62.6 °F - 60.8 °F 94% 30.01 in 0.5 mi Calm Calm - N/A Fog Fog
12:35 AM 62.6 °F - 60.8 °F 94% 30.01 in 0.2 mi Calm Calm - N/A Fog Fog
12:55 AM 62.6 °F - 60.8 °F 94% 30.01 in 0.2 mi Calm Calm - N/A Fog Fog
1:15 AM 62.6 °F - 60.8 °F 94% 30.01 in 0.8 mi Calm Calm - N/A   Mist
1:35 AM 62.6 °F - 62.6 °F 100% 30.02 in 0.2 mi Calm Calm - N/A Fog Fog
1:55 AM 62.6 °F - 59.0 °F 88% 30.02 in 0.2 mi Calm Calm - N/A Fog Fog
2:15 AM 60.8 °F - 59.0 °F 94% 30.01 in 0.5 mi Calm Calm - N/A Fog Fog
2:35 AM 60.8 °F - 59.0 °F 94% 30.01 in 0.5 mi Calm Calm - N/A Fog Fog
2:55 AM 60.8 °F - 59.0 °F 94% 30.01 in 0.8 mi Calm Calm - N/A   Mist
3:15 AM 59.0 °F - 59.0 °F 100% 30.01 in 0.8 mi Calm Calm - N/A   Mist
3:35 AM 59.0 °F - 57.2 °F 94% 30.01 in 0.8 mi Calm Calm - N/A   Mist
3:55 AM 59.0 °F - 57.2 °F 94% 30.01 in 0.5 mi Calm Calm - N/A Fog Fog
4:15 AM 59.0 °F - 57.2 °F 94% 30.02 in 0.8 mi Calm Calm - N/A   Mist
4:35 AM 59.0 °F - 57.2 °F 94% 30.02 in 0.5 mi Calm Calm - N/A Fog Fog
4:55 AM 59.0 °F - 57.2 °F 94% 30.03 in 0.5 mi Calm Calm - N/A Fog Fog
5:15 AM 59.0 °F - 57.2 °F 94% 30.04 in 0.5 mi Calm Calm - N/A Fog Fog
5:35 AM 59.0 °F - 57.2 °F 94% 30.04 in 0.8 mi Calm Calm - N/A   Mist
5:55 AM 59.0 °F - 57.2 °F 94% 30.05 in 1.0 mi Calm Calm - N/A   Clear
6:15 AM 57.2 °F - 57.2 °F 100% 30.06 in 0.5 mi Calm Calm - N/A Fog Fog
6:35 AM 57.2 °F - 57.2 °F 100% 30.07 in 0.5 mi Calm Calm - N/A Fog Fog
6:55 AM 57.2 °F - 57.2 °F 100% 30.08 in 2.0 mi Calm Calm - N/A   Clear
7:15 AM 57.2 °F - 57.2 °F 100% 30.09 in 0.8 mi Calm Calm - N/A   Mist
7:35 AM 59.0 °F - 59.0 °F 100% 30.09 in 1.8 mi Calm Calm - N/A   Clear
7:55 AM 60.8 °F - 59.0 °F 94% 30.09 in 10.0 mi Calm Calm - N/A   Clear
8:15 AM 64.4 °F - 60.8 °F 88% 30.09 in 10.0 mi Calm Calm - N/A   Clear
8:35 AM 64.4 °F - 60.8 °F 88% 30.10 in 10.0 mi SE 3.5 mph - N/A   Clear
8:55 AM 68.0 °F - 62.6 °F 83% 30.10 in 10.0 mi SE 4.6 mph - N/A   Clear
9:15 AM 69.8 °F - 62.6 °F 78% 30.11 in 10.0 mi SSE 4.6 mph - N/A   Clear
9:35 AM 71.6 °F - 62.6 °F 73% 30.11 in 10.0 mi SE 4.6 mph - N/A   Clear
9:55 AM 73.4 °F - 64.4 °F 73% 30.11 in 10.0 mi SSE 5.8 mph - N/A   Clear
10:15 AM 75.2 °F - 64.4 °F 69% 30.11 in 10.0 mi SE 5.8 mph - N/A   Clear
10:35 AM 77.0 °F - 64.4 °F 65% 30.11 in 10.0 mi SE 5.8 mph - N/A   Clear
10:55 AM 78.8 °F - 64.4 °F 61% 30.11 in 10.0 mi SE 5.8 mph - N/A   Clear
11:15 AM 80.6 °F 82.3 °F 64.4 °F 58% 30.11 in 10.0 mi SE 8.1 mph - N/A   Partly Cloudy
11:35 AM 80.6 °F 81.8 °F 62.6 °F 54% 30.10 in 10.0 mi SE 6.9 mph - N/A   Mostly Cloudy
11:55 AM 80.6 °F 81.1 °F 59.0 °F 48% 30.10 in 10.0 mi SSE 5.8 mph - N/A   Scattered Clouds
12:15 PM 80.6 °F 81.5 °F 60.8 °F 51% 30.09 in 10.0 mi SE 8.1 mph - N/A   Mostly Cloudy
12:35 PM 82.4 °F 83.4 °F 62.6 °F 51% 30.09 in 10.0 mi South 6.9 mph - N/A   Scattered Clouds
12:55 PM 80.6 °F 81.1 °F 59.0 °F 48% 30.08 in 10.0 mi SSE 5.8 mph - N/A   Partly Cloudy
1:15 PM 82.4 °F 82.5 °F 59.0 °F 45% 30.07 in 10.0 mi SSE 4.6 mph - N/A   Mostly Cloudy
1:35 PM 80.6 °F 81.1 °F 59.0 °F 48% 30.06 in 10.0 mi ESE 6.9 mph - N/A   Partly Cloudy
1:55 PM 82.4 °F 82.5 °F 59.0 °F 45% 30.05 in 10.0 mi ESE 3.5 mph - N/A   Scattered Clouds
2:15 PM 82.4 °F 82.5 °F 59.0 °F 45% 30.05 in 10.0 mi SSE 3.5 mph - N/A   Scattered Clouds
2:35 PM 82.4 °F 82.0 °F 57.2 °F 42% 30.04 in 10.0 mi SSE 4.6 mph - N/A   Scattered Clouds
2:55 PM 82.4 °F 82.0 °F 57.2 °F 42% 30.03 in 10.0 mi ESE 4.6 mph - N/A   Partly Cloudy
3:15 PM 84.2 °F 83.5 °F 57.2 °F 40% 30.03 in 10.0 mi SSE 5.8 mph - N/A   Clear
3:35 PM 84.2 °F 83.5 °F 57.2 °F 40% 30.03 in 10.0 mi South 5.8 mph - N/A   Mostly Cloudy
3:55 PM 84.2 °F 83.5 °F 57.2 °F 40% 30.02 in 10.0 mi ESE 3.5 mph - N/A   Scattered Clouds
4:15 PM 82.4 °F 82.5 °F 59.0 °F 45% 30.03 in 10.0 mi East 6.9 mph - N/A   Mostly Cloudy
4:35 PM 80.6 °F 81.1 °F 59.0 °F 48% 30.03 in 10.0 mi East 5.8 mph - N/A   Partly Cloudy
4:55 PM 82.4 °F 82.5 °F 59.0 °F 45% 30.03 in 10.0 mi ESE 6.9 mph - N/A   Clear
5:15 PM 80.6 °F 81.1 °F 59.0 °F 48% 30.03 in 10.0 mi ESE 6.9 mph - N/A   Clear
5:35 PM 80.6 °F 81.1 °F 59.0 °F 48% 30.03 in 10.0 mi ESE 4.6 mph - N/A   Clear
5:55 PM 80.6 °F 81.1 °F 59.0 °F 48% 30.03 in 10.0 mi ESE 3.5 mph - N/A   Clear
6:15 PM 77.0 °F - 64.4 °F 65% 30.03 in 10.0 mi ESE 3.5 mph - N/A   Clear
6:35 PM 75.2 °F - 64.4 °F 69% 30.03 in 10.0 mi SE 3.5 mph - N/A   Clear
6:55 PM 73.4 °F - 64.4 °F 73% 30.03 in 10.0 mi Calm Calm - N/A   Clear
7:15 PM 71.6 °F - 66.2 °F 83% 30.03 in 10.0 mi Calm Calm - N/A   Clear
7:35 PM 68.0 °F - 64.4 °F 88% 30.04 in 10.0 mi Calm Calm - N/A   Clear
7:55 PM 68.0 °F - 62.6 °F 83% 30.04 in 10.0 mi Calm Calm - N/A   Clear
8:15 PM 66.2 °F - 62.6 °F 88% 30.05 in 10.0 mi Calm Calm - N/A   Clear
8:35 PM 66.2 °F - 62.6 °F 88% 30.05 in 10.0 mi Calm Calm - N/A   Clear
8:55 PM 66.2 °F - 62.6 °F 88% 30.06 in 10.0 mi Calm Calm - N/A   Clear
9:15 PM 64.4 °F - 62.6 °F 94% 30.07 in 10.0 mi Calm Calm - N/A   Clear
9:35 PM 64.4 °F - 62.6 °F 94% 30.07 in 10.0 mi Calm Calm - N/A   Clear
9:55 PM 64.4 °F - 62.6 °F 94% 30.07 in 10.0 mi Calm Calm - N/A   Clear
10:15 PM 64.4 °F - 62.6 °F 94% 30.07 in 10.0 mi Calm Calm - N/A   Clear
10:35 PM 64.4 °F - 62.6 °F 94% 30.07 in 10.0 mi SSE 3.5 mph - N/A   Clear
10:55 PM 64.4 °F - 62.6 °F 94% 30.07 in 10.0 mi South 4.6 mph - N/A   Clear
11:15 PM 64.4 °F - 60.8 °F 88% 30.07 in 10.0 mi Calm Calm - N/A   Clear
11:35 PM 64.4 °F - 60.8 °F 88% 30.07 in 10.0 mi Calm Calm - N/A   Clear
11:55 PM 64.4 °F - 60.8 °F 88% 30.07 in 10.0 mi Calm Calm - N/A   Clear